DW9580 Weather Reports


time (UTC)temp
C
wind
direction
speed
KPH
gust
KPH
rain 1hr
cm
rain 24hr
cm
rain mn
cm
humidity
%
barometer
mb
20190421084734 18 71 3.2 8.0 0.00 0.00 0.00 47 1019.9
20190421084231 18 52 3.2 9.7 0.00 0.00 0.00 48 1019.9
20190421083721 18 50 3.2 9.7 0.00 0.00 0.00 48 1019.9
20190421083232 18 78 3.2 8.0 0.00 0.00 0.00 47 1019.9
20190421082731 18 47 3.2 6.4 0.00 0.00 0.00 47 1019.9
20190421082228 18 53 3.2 8.0 0.00 0.00 0.00 48 1020.0
20190421081727 18 55 3.2 8.0 0.00 0.00 0.00 48 1020.0
20190421081235 17 44 3.2 8.0 0.00 0.00 0.00 49 1020.0
20190421080732 17 44 3.2 6.4 0.00 0.00 0.00 49 1020.0
20190421080225 17 64 1.6 4.8 0.00 0.00 0.00 50 1020.0
20190421075707 17 64 1.6 6.4 0.00 0.00 0.00 52 1020.1
20190421075221 16 66 1.6 6.4 0.00 0.00 0.00 51 1020.1
20190421074707 16 66 1.6 6.4 0.00 0.00 0.00 52 1020.1
20190421074206 16 66 1.6 6.4 0.00 0.00 0.00 53 1020.1
20190421073706 16 67 1.6 4.8 0.00 0.00 0.00 54 1020.1
20190421073232 15 67 1.6 4.8 0.00 0.00 0.00 56 1020.1
20190421072708 15 67 1.6 4.8 0.00 0.00 0.00 56 1020.1
20190421071712 15 67 1.6 3.2 0.00 0.00 0.00 58 1020.2
20190421071215 15 67 1.6 4.8 0.00 0.00 0.00 59 1020.1
20190421070706 14 67 1.6 6.4 0.00 0.00 0.00 59 1020.2
20190421070206 14 67 1.6 6.4 0.00 0.00 0.00 59 1020.2
20190421065707 14 67 1.6 6.4 0.00 0.00 0.00 58 1020.2
20190421065229 13 67 3.2 6.4 0.00 0.00 0.00 59 1020.2
20190421064717 13 72 3.2 6.4 0.00 0.00 0.00 60 1020.2
20190421064214 13 72 1.6 6.4 0.00 0.00 0.00 61 1020.2
20190421063706 12 72 1.6 4.8 0.00 0.00 0.00 62 1020.2
20190421063216 12 72 1.6 4.8 0.00 0.00 0.00 63 1020.3
20190421062713 12 72 1.6 4.8 0.00 0.00 0.00 64 1020.2
20190421062215 11 72 0.0 3.2 0.00 0.00 0.00 66 1020.3
20190421061707 11 72 0.0 3.2 0.00 0.00 0.00 68 1020.4
20190421061231 11 72 1.6 3.2 0.00 0.00 0.00 69 1020.4
20190421060719 10 72 0.0 0.0 0.00 0.00 0.00 70 1020.4
20190421060206 10 72 0.0 0.0 0.00 0.00 0.00 72 1020.4
20190421055705 10 72 0.0 0.0 0.00 0.00 0.00 73 1020.4
20190421055300 9 72 0.0 0.0 0.00 0.00 0.00 73 1020.4
20190421054706 9 72 0.0 0.0 0.00 0.00 0.00 74 1020.5
20190421054232 8 72 0.0 0.0 0.00 0.00 0.00 75 1020.5
20190421053712 8 72 0.0 0.0 0.00 0.00 0.00 76 1020.5
20190421053220 8 72 0.0 0.0 0.00 0.00 0.00 77 1020.5
20190421052706 8 72 0.0 0.0 0.00 0.00 0.00 77 1020.5
20190421052215 8 72 0.0 0.0 0.00 0.00 0.00 77 1020.5
20190421051715 7 72 0.0 0.0 0.00 0.00 0.00 77 1020.5
20190421051236 7 72 0.0 0.0 0.00 0.00 0.00 77 1020.6
20190421050708 7 72 0.0 0.0 0.00 0.00 0.00 77 1020.5
20190421050207 7 72 0.0 0.0 0.00 0.00 0.00 77 1020.5
20190421045716 7 72 0.0 0.0 0.00 0.00 0.00 76 1020.6
20190421045234 7 72 0.0 0.0 0.00 0.00 0.00 76 1020.6
20190421044713 8 72 0.0 0.0 0.00 0.00 0.00 75 1020.6
20190421044217 8 72 0.0 0.0 0.00 0.00 0.00 75 1020.7
20190421043718 8 72 0.0 0.0 0.00 0.00 0.00 75 1020.7
20190421043223 8 72 0.0 0.0 0.00 0.00 0.00 74 1020.7
20190421042713 8 72 0.0 0.0 0.00 0.00 0.00 74 1020.8
20190421042220 8 72 0.0 0.0 0.00 0.00 0.00 74 1020.8
20190421041706 8 72 0.0 0.0 0.00 0.00 0.00 74 1020.8
20190421041216 8 72 0.0 0.0 0.00 0.00 0.00 73 1020.8
20190421040712 8 72 0.0 0.0 0.00 0.00 0.00 73 1020.8
20190421040221 8 72 0.0 0.0 0.00 0.00 0.00 73 1020.8
20190421035713 8 72 0.0 0.0 0.00 0.00 0.00 73 1020.9
20190421035225 8 72 0.0 0.0 0.00 0.00 0.00 73 1020.9
20190421034723 8 72 0.0 0.0 0.00 0.00 0.00 73 1020.9
20190421034207 8 72 0.0 0.0 0.00 0.00 0.00 74 1020.9
20190421033709 8 72 0.0 0.0 0.00 0.00 0.00 74 1021.0
20190421033213 8 72 0.0 0.0 0.00 0.00 0.00 74 1021.0
20190421032715 8 72 0.0 0.0 0.00 0.00 0.00 74 1021.1
20190421032206 8 72 0.0 0.0 0.00 0.00 0.00 74 1021.2
20190421031706 8 72 0.0 0.0 0.00 0.00 0.00 74 1021.3
20190421031217 8 72 0.0 0.0 0.00 0.00 0.00 74 1021.3
20190421030706 8 72 0.0 0.0 0.00 0.00 0.00 73 1021.4
20190421030207 8 72 0.0 0.0 0.00 0.00 0.00 73 1021.4
20190421025714 8 72 0.0 0.0 0.00 0.00 0.00 73 1021.4
20190421025206 8 72 0.0 0.0 0.00 0.00 0.00 73 1021.4
20190421024710 8 72 0.0 0.0 0.00 0.00 0.00 72 1021.5
20190421024213 9 72 0.0 0.0 0.00 0.00 0.00 72 1021.6
20190421023706 9 72 0.0 0.0 0.00 0.00 0.00 71 1021.6
20190421023214 9 72 0.0 0.0 0.00 0.00 0.00 71 1021.7
20190421022720 9 72 0.0 0.0 0.00 0.00 0.00 71 1021.7
20190421022227 9 72 0.0 0.0 0.00 0.00 0.00 70 1021.8
20190421021705 9 72 0.0 0.0 0.00 0.00 0.00 70 1021.8
20190421021228 9 72 0.0 0.0 0.00 0.00 0.00 69 1021.9
20190421020706 9 72 0.0 0.0 0.00 0.00 0.00 69 1022.0
20190421020207 10 72 0.0 0.0 0.00 0.00 0.00 69 1022.0
20190421015706 10 72 0.0 0.0 0.00 0.00 0.00 68 1022.0
20190421015206 10 72 0.0 0.0 0.00 0.00 0.00 68 1022.0
20190421014732 10 72 0.0 0.0 0.00 0.00 0.00 68 1022.1
20190421014206 10 72 0.0 0.0 0.00 0.00 0.00 68 1022.0
20190421013708 10 72 0.0 0.0 0.00 0.00 0.00 67 1022.0
20190421013220 10 72 0.0 0.0 0.00 0.00 0.00 67 1022.0
20190421012710 10 72 0.0 0.0 0.00 0.00 0.00 65 1022.1
20190421012219 10 72 0.0 0.0 0.00 0.00 0.00 65 1022.2
20190421011711 11 72 0.0 0.0 0.00 0.00 0.00 64 1022.3
20190421011213 11 72 0.0 0.0 0.00 0.00 0.00 64 1022.3
20190421010711 11 72 0.0 0.0 0.00 0.00 0.00 63 1022.4
20190421010206 11 72 0.0 0.0 0.00 0.00 0.00 63 1022.4
20190421005716 11 72 0.0 0.0 0.00 0.00 0.00 63 1022.4
20190421005230 11 72 0.0 0.0 0.00 0.00 0.00 63 1022.4
20190421004715 11 72 0.0 0.0 0.00 0.00 0.00 63 1022.4
20190421004232 11 72 0.0 0.0 0.00 0.00 0.00 62 1022.5
20190421003712 11 72 0.0 0.0 0.00 0.00 0.00 61 1022.6
20190421003220 11 72 0.0 0.0 0.00 0.00 0.00 60 1022.6
20190421002718 11 72 0.0 1.6 0.00 0.00 0.00 61 1022.7
20190421002220 11 72 0.0 3.2 0.00 0.00 0.00 60 1022.8
20190421001707 11 72 0.0 3.2 0.00 0.00 0.00 60 1022.8
20190421001227 11 72 0.0 0.0 0.00 0.00 0.00 60 1022.9
20190421000723 11 72 0.0 0.0 0.00 0.00 0.00 60 1023.0
20190421000216 11 72 0.0 0.0 0.00 0.00 0.00 60 1023.1
20190420235713 12 72 0.0 0.0 0.00 0.00 0.00 60 1023.1
20190420235221 12 72 0.0 0.0 0.00 0.00 0.00 59 1023.1
20190420234713 12 72 0.0 0.0 0.00 0.00 0.00 59 1023.1
20190420234221 12 72 0.0 0.0 0.00 0.00 0.00 59 1023.2
20190420233706 12 72 0.0 1.6 0.00 0.00 0.00 58 1023.2
20190420233214 12 72 0.0 1.6 0.00 0.00 0.00 58 1023.2
20190420232717 12 72 0.0 1.6 0.00 0.00 0.00 57 1023.3
20190420232215 12 72 0.0 0.0 0.00 0.00 0.00 57 1023.4
20190420231706 12 72 0.0 0.0 0.00 0.00 0.00 56 1023.4
20190420231218 13 72 0.0 0.0 0.00 0.00 0.00 56 1023.4
20190420230705 13 72 0.0 0.0 0.00 0.00 0.00 55 1023.5
20190420230235 13 72 0.0 0.0 0.00 0.00 0.00 55 1023.5
20190420225707 13 72 0.0 0.0 0.00 0.00 0.00 54 1023.6
20190420225209 13 72 0.0 0.0 0.00 0.00 0.00 53 1023.6
20190420224715 13 72 0.0 0.0 0.00 0.00 0.00 52 1023.6
20190420224233 14 72 0.0 0.0 0.00 0.00 0.00 52 1023.7
20190420223709 14 72 0.0 0.0 0.00 0.00 0.00 51 1023.7
20190420223217 14 72 0.0 0.0 0.00 0.00 0.00 50 1023.8
20190420222718 15 72 0.0 0.0 0.00 0.00 0.00 49 1023.8
20190420222206 15 72 0.0 1.6 0.00 0.00 0.00 49 1023.8
20190420221706 15 72 0.0 1.6 0.00 0.00 0.00 48 1023.8
20190420221210 15 72 0.0 1.6 0.00 0.00 0.00 48 1023.8
20190420220719 15 72 0.0 1.6 0.00 0.00 0.00 48 1023.9
20190420220211 15 72 0.0 4.8 0.00 0.00 0.00 48 1023.9
20190420215706 15 72 0.0 4.8 0.00 0.00 0.00 47 1023.9
20190420215215 15 72 1.6 4.8 0.00 0.00 0.00 47 1023.9
20190420214720 16 72 1.6 4.8 0.00 0.00 0.00 47 1023.9
20190420214234 16 72 1.6 4.8 0.00 0.00 0.00 47 1024.0
20190420213714 16 72 1.6 4.8 0.00 0.00 0.00 47 1023.9
20190420213229 16 72 1.6 4.8 0.00 0.00 0.00 46 1024.0
20190420212713 16 74 1.6 6.4 0.00 0.00 0.00 46 1023.9
20190420212222 16 76 1.6 6.4 0.00 0.00 0.00 46 1024.0
20190420211711 16 63 1.6 6.4 0.00 0.00 0.00 46 1024.0
20190420211216 16 30 1.6 6.4 0.00 0.00 0.00 46 1024.0
20190420210708 16 13 3.2 4.8 0.00 0.00 0.00 46 1023.9
20190420210208 16 11 1.6 4.8 0.00 0.00 0.00 47 1024.0
20190420205707 16 11 1.6 4.8 0.00 0.00 0.00 46 1024.0
20190420205207 16 11 1.6 4.8 0.00 0.00 0.00 46 1024.0
20190420204713 16 11 1.6 4.8 0.00 0.00 0.00 46 1023.9
20190420204218 16 11 1.6 4.8 0.00 0.00 0.00 46 1023.9
20190420203707 17 11 1.6 4.8 0.00 0.00 0.00 46 1023.9
20190420203233 17 11 1.6 4.8 0.00 0.00 0.00 45 1023.9
20190420202726 17 11 1.6 4.8 0.00 0.00 0.00 45 1023.9
20190420202206 17 11 1.6 4.8 0.00 0.00 0.00 45 1023.9
20190420201719 17 11 1.6 4.8 0.00 0.00 0.00 45 1023.9
20190420201224 17 10 1.6 3.2 0.00 0.00 0.00 45 1023.9
20190420200706 17 10 0.0 3.2 0.00 0.00 0.00 44 1023.9
20190420200205 17 10 0.0 3.2 0.00 0.00 0.00 44 1023.9
20190420195710 18 10 1.6 3.2 0.00 0.00 0.00 43 1023.8
20190420195215 18 10 0.0 3.2 0.00 0.00 0.00 43 1023.8
20190420194708 18 10 1.6 3.2 0.00 0.00 0.00 42 1023.8
20190420194218 18 10 1.6 3.2 0.00 0.00 0.00 42 1023.8
20190420193706 18 10 1.6 3.2 0.00 0.00 0.00 42 1023.8
20190420193233 18 10 1.6 4.8 0.00 0.00 0.00 41 1023.7
20190420192712 18 10 1.6 4.8 0.00 0.00 0.00 40 1023.8
20190420192214 19 10 1.6 4.8 0.00 0.00 0.00 40 1023.7
20190420191710 19 10 0.0 6.4 0.00 0.00 0.00 39 1023.7
20190420191220 19 10 0.0 8.0 0.00 0.00 0.00 39 1023.6
20190420190733 20 10 1.6 8.0 0.00 0.00 0.00 38 1023.6
20190420190206 20 10 1.6 3.2 0.00 0.00 0.00 37 1023.7
20190420185705 20 49 0.0 3.2 0.00 0.00 0.00 38 1023.6
20190420185215 20 49 0.0 3.2 0.00 0.00 0.00 37 1023.5
20190420184708 20 49 0.0 3.2 0.00 0.00 0.00 37 1023.6
20190420184219 20 49 0.0 3.2 0.00 0.00 0.00 36 1023.5
20190420183713 20 49 0.0 3.2 0.00 0.00 0.00 36 1023.6
20190420183218 21 49 0.0 3.2 0.00 0.00 0.00 35 1023.6
20190420182717 21 49 0.0 3.2 0.00 0.00 0.00 35 1023.6
20190420182211 21 49 1.6 3.2 0.00 0.00 0.00 34 1023.7
20190420181706 21 49 1.6 3.2 0.00 0.00 0.00 34 1023.6
20190420181216 21 49 1.6 3.2 0.00 0.00 0.00 33 1023.6
20190420180709 21 49 0.0 3.2 0.00 0.00 0.00 33 1023.7
20190420180216 21 50 1.6 6.4 0.00 0.00 0.00 33 1023.7
20190420175715 22 50 1.6 6.4 0.00 0.00 0.00 32 1023.7
20190420175214 22 50 1.6 6.4 0.00 0.00 0.00 32 1023.7
20190420174724 22 53 1.6 4.8 0.00 0.00 0.00 32 1023.7
20190420174206 22 26 1.6 6.4 0.00 0.00 0.00 31 1023.7
20190420173712 22 25 1.6 6.4 0.00 0.00 0.00 31 1023.7
20190420173213 22 25 3.2 6.4 0.00 0.00 0.00 31 1023.7
20190420172719 22 39 3.2 6.4 0.00 0.00 0.00 31 1023.7
20190420172224 22 39 3.2 6.4 0.00 0.00 0.00 31 1023.7
20190420171706 22 52 3.2 6.4 0.00 0.00 0.00 31 1023.7
20190420171217 22 53 3.2 6.4 0.00 0.00 0.00 31 1023.8
20190420170706 22 61 3.2 8.0 0.00 0.00 0.00 30 1023.8
20190420170219 23 63 3.2 9.7 0.00 0.00 0.00 30 1023.8
20190420165713 23 0 3.2 9.7 0.00 0.00 0.00 30 1023.9
20190420165235 23 72 3.2 9.7 0.00 0.00 0.00 30 1023.9
20190420164712 23 355 3.2 9.7 0.00 0.00 0.00 30 1024.0
20190420164206 23 346 3.2 9.7 0.00 0.00 0.00 30 1024.0
20190420163708 23 24 4.8 9.7 0.00 0.00 0.00 30 1024.0
20190420163226 23 340 3.2 6.4 0.00 0.00 0.00 30 1024.0
20190420162709 23 60 3.2 6.4 0.00 0.00 0.00 30 1024.1
20190420162215 23 75 3.2 6.4 0.00 0.00 0.00 30 1024.2
20190420161716 23 15 3.2 11.3 0.00 0.00 0.00 31 1024.2
20190420161219 23 101 3.2 11.3 0.00 0.00 0.00 30 1024.2
20190420160706 23 113 3.2 12.9 0.00 0.00 0.00 30 1024.3
20190420160206 23 51 3.2 12.9 0.00 0.00 0.00 30 1024.2
20190420155715 23 69 4.8 12.9 0.00 0.00 0.00 30 1024.4
20190420155206 23 10 4.8 12.9 0.00 0.00 0.00 29 1024.3
20190420154717 23 5 3.2 12.9 0.00 0.00 0.00 30 1024.4
20190420154209 23 78 4.8 12.9 0.00 0.00 0.00 31 1024.5
20190420153716 23 13 4.8 12.9 0.00 0.00 0.00 30 1024.4
20190420153215 23 335 4.8 12.9 0.00 0.00 0.00 31 1024.5
20190420152707 23 59 4.8 8.0 0.00 0.00 0.00 30 1024.5
20190420152206 23 59 3.2 8.0 0.00 0.00 0.00 31 1024.5
20190420151712 23 22 3.2 9.7 0.00 0.00 0.00 30 1024.5
20190420151217 23 355 3.2 9.7 0.00 0.00 0.00 31 1024.5
20190420150712 24 90 3.2 9.7 0.00 0.00 0.00 30 1024.6
20190420150207 23 98 3.2 9.7 0.00 0.00 0.00 30 1024.6
20190420145715 23 98 4.8 9.7 0.00 0.00 0.00 30 1024.7
20190420145212 23 117 4.8 8.0 0.00 0.00 0.00 30 1024.7
20190420144720 23 84 4.8 8.0 0.00 0.00 0.00 30 1024.7
20190420144207 23 24 3.2 8.0 0.00 0.00 0.00 29 1024.8
20190420143709 23 23 3.2 8.0 0.00 0.00 0.00 30 1024.8
20190420143216 23 23 3.2 11.3 0.00 0.00 0.00 30 1024.9
20190420142716 23 22 3.2 17.7 0.00 0.00 0.00 30 1025.0
20190420142232 23 128 4.8 17.7 0.00 0.00 0.00 30 1025.0
20190420141729 23 126 4.8 17.7 0.00 0.00 0.00 29 1025.1
20190420141213 23 103 4.8 12.9 0.00 0.00 0.00 29 1025.2
20190420140706 23 117 3.2 12.9 0.00 0.00 0.00 29 1025.2
20190420140223 23 38 1.6 12.9 0.00 0.00 0.00 29 1025.2
20190420135712 23 33 3.2 16.1 0.00 0.00 0.00 28 1025.4
20190420135207 23 51 4.8 16.1 0.00 0.00 0.00 29 1025.5
20190420134724 23 69 4.8 9.7 0.00 0.00 0.00 29 1025.5
20190420134208 23 71 3.2 14.5 0.00 0.00 0.00 28 1025.6
20190420133721 23 123 4.8 14.5 0.00 0.00 0.00 28 1025.6
20190420133206 23 98 4.8 14.5 0.00 0.00 0.00 27 1025.7
20190420132707 23 111 3.2 9.7 0.00 0.00 0.00 27 1025.7
20190420132209 23 77 3.2 9.7 0.00 0.00 0.00 27 1025.7
20190420131714 23 69 3.2 11.3 0.00 0.00 0.00 28 1025.8
20190420131227 23 98 4.8 12.9 0.00 0.00 0.00 28 1025.8
20190420130705 23 92 4.8 12.9 0.00 0.00 0.00 29 1025.9
20190420130207 23 99 4.8 12.9 0.00 0.00 0.00 28 1025.9
20190420125708 23 109 4.8 9.7 0.00 0.00 0.00 29 1026.0
20190420125209 23 118 3.2 12.9 0.00 0.00 0.00 31 1026.0
20190420124710 23 61 3.2 12.9 0.00 0.00 0.00 30 1026.1
20190420124206 23 134 4.8 12.9 0.00 0.00 0.00 27 1026.1
20190420123706 23 123 4.8 14.5 0.00 0.00 0.00 27 1026.1
20190420123214 23 24 4.8 16.1 0.00 0.00 0.00 32 1026.1
20190420122711 23 113 4.8 16.1 0.00 0.00 0.00 31 1026.2
20190420122214 23 148 4.8 12.9 0.00 0.00 0.00 31 1026.3
20190420121706 22 63 4.8 12.9 0.00 0.00 0.00 33 1026.3
20190420121218 22 112 4.8 16.1 0.00 0.00 0.00 34 1026.4
20190420120715 22 24 6.4 16.1 0.00 0.00 0.00 35 1026.4
20190420120207 22 74 4.8 16.1 0.00 0.00 0.00 34 1026.5
20190420115706 22 322 4.8 9.7 0.00 0.00 0.00 34 1026.4
20190420115206 22 5 4.8 11.3 0.00 0.00 0.00 34 1026.6
20190420114706 22 46 3.2 11.3 0.00 0.00 0.00 34 1026.5
20190420114209 22 24 4.8 14.5 0.00 0.00 0.00 35 1026.6
20190420113705 22 355 4.8 14.5 0.00 0.00 0.00 34 1026.6
20190420113207 22 44 4.8 14.5 0.00 0.00 0.00 36 1026.7
20190420112706 22 26 4.8 9.7 0.00 0.00 0.00 35 1026.8
20190420112230 22 42 4.8 8.0 0.00 0.00 0.00 36 1026.8
20190420111717 21 24 4.8 11.3 0.00 0.00 0.00 38 1026.9
20190420111209 21 34 3.2 11.3 0.00 0.00 0.00 37 1027.0
20190420110706 21 53 3.2 11.3 0.00 0.00 0.00 39 1026.9
20190420110207 21 39 3.2 9.7 0.00 0.00 0.00 39 1026.9
20190420105713 21 76 3.2 9.7 0.00 0.00 0.00 39 1026.9
20190420105216 21 70 4.8 8.0 0.00 0.00 0.00 40 1026.9
20190420104716 21 69 4.8 11.3 0.00 0.00 0.00 39 1026.9
20190420104207 21 62 4.8 11.3 0.00 0.00 0.00 40 1026.9
20190420103707 21 13 4.8 11.3 0.00 0.00 0.00 41 1026.9
20190420103208 21 72 4.8 8.0 0.00 0.00 0.00 39 1027.0
20190420102723 21 34 3.2 8.0 0.00 0.00 0.00 39 1027.0
20190420102216 20 58 3.2 9.7 0.00 0.00 0.00 39 1027.0
20190420101713 20 54 3.2 9.7 0.00 0.00 0.00 39 1027.0
20190420101207 20 45 4.8 9.7 0.00 0.00 0.00 41 1027.1
20190420100706 20 97 4.8 8.0 0.00 0.00 0.00 40 1027.2
20190420100205 20 57 3.2 8.0 0.00 0.00 0.00 41 1027.2
20190420095706 20 5 3.2 12.9 0.00 0.00 0.00 42 1027.2
20190420095212 20 55 3.2 12.9 0.00 0.00 0.00 44 1027.2
20190420094717 20 38 3.2 12.9 0.00 0.00 0.00 44 1027.2
20190420094218 19 80 3.2 8.0 0.00 0.00 0.00 43 1027.3
20190420093710 19 29 3.2 6.4 0.00 0.00 0.00 44 1027.3
20190420093209 19 64 3.2 6.4 0.00 0.00 0.00 44 1027.3
20190420092706 19 59 3.2 9.7 0.00 0.00 0.00 45 1027.3
20190420092206 18 65 3.2 9.7 0.00 0.00 0.00 45 1027.2
20190420091213 18 71 3.2 9.7 0.00 0.00 0.00 45 1027.3
20190420090718 18 39 3.2 9.7 0.00 0.00 0.00 46 1027.2
20190420090207 18 16 3.2 8.0 0.00 0.00 0.00 47 1027.3
20190420085715 18 45 3.2 8.0 0.00 0.00 0.00 46 1027.3
20190420085206 18 59 3.2 8.0 0.00 0.00 0.00 47 1027.3